Temperature
17 17 17 16 16 15 14 14 14 15 16 16 15 14 14 13 13 12 11 10 9 8 8 7 7 6 5 5 5 4 4 4 3 3 2 2 2 1 1 0 -0 -1 -1 -1
15 16 16 15 15 15 15 15 15 15 15 15 15 15 14 13 12 11 10 9 8 8 7 6 6 5 5 5 4 4 3 3 3 2 2 1 1 1 0 -0 -1 -1 -1 -2
13 15 14 13 14 14 14 15 15 14 14 13 13 13 13 12 11 11 9 8 8 7 6 6 5 5 4 4 4 3 3 2 2 1 1 1 0 -0 -1 -1 -1 -2 -2 -2
12 13 11 14 15 15 15 15 15 14 13 13 12 12 12 11 11 10 9 8 7 6 6 5 5 4 4 3 3 2 2 2 1 1 0 -0 -0 -1 -1 -2 -2 -2 -3 -3
11 11 12 14 13 13 13 13 14 13 12 12 11 10 10 10 9 9 8 7 6 6 5 4 4 4 3 3 2 2 1 1 1 0 -0 -1 -1 -2 -2 -2 -3 -3 -3 -4
10 10 10 14 12 13 13 11 13 13 11 10 9 7 8 9 8 8 7 6 5 5 4 4 3 3 2 2 2 1 1 0 0 -0 -1 -1 -2 -2 -2 -3 -3 -3 -4 -4
9 9 11 12 11 11 11 11 11 12 11 10 8 7 8 8 7 6 6 5 5 4 4 3 3 2 2 1 1 1 0 -0 -1 -1 -2 -2 -2 -3 -3 -3 -4 -4 -4 -5
9 9 10 10 10 10 10 10 11 10 10 9 8 7 7 6 6 5 5 4 4 3 3 3 2 2 1 1 0 -0 -0 -1 -1 -2 -2 -3 -3 -3 -4 -4 -4 -5 -5 -5
11 11 11 11 11 10 10 10 9 9 9 8 7 6 6 5 5 4 4 3 3 3 2 2 2 1 0 0 -0 -1 -1 -1 -2 -2 -3 -3 -4 -4 -4 -5 -5 -5 -5 -6
11 11 11 11 10 10 9 9 8 8 8 7 6 6 5 4 4 4 3 3 2 2 2 1 1 0 0 -0 -1 -1 -2 -2 -3 -3 -3 -4 -4 -5 -5 -5 -5 -6 -6 -6
10 10 10 10 9 9 8 8 7 7 6 6 5 5 4 4 3 3 2 2 2 1 1 1 0 -0 -0 -1 -2 -2 -2 -3 -3 -4 -4 -5 -5 -5 -5 -6 -6 -6 -6 -6
9 10 9 9 9 8 7 7 6 6 5 5 5 4 3 3 3 2 2 1 1 1 0 0 -0 -1 -1 -2 -2 -3 -3 -3 -4 -4 -5 -5 -6 -6 -6 -6 -6 -6 -6 -6
10 9 9 8 8 7 6 6 5 5 5 4 3 3 3 2 2 2 1 1 1 0 -0 -1 -1 -1 -2 -2 -3 -3 -4 -4 -5 -5 -5 -6 -6 -7 -7 -6 -6 -7 -7 -7
8 8 7 6 6 6 5 5 4 4 3 3 3 2 2 2 1 1 1 0 -0 -1 -1 -1 -2 -2 -2 -3 -3 -4 -4 -5 -5 -6 -6 -6 -7 -7 -7 -7 -7 -7 -7 -7
6 6 6 5 5 4 4 4 3 3 2 2 2 2 1 1 1 0 0 -0 -1 -1 -1 -2 -2 -2 -3 -4 -4 -4 -5 -5 -6 -6 -6 -7 -7 -7 -8 -8 -8 -8 -8 -7
5 4 4 4 3 3 3 2 2 2 2 1 1 1 1 0 0 -0 -0 -1 -2 -2 -2 -2 -3 -3 -4 -4 -5 -5 -5 -6 -6 -7 -7 -7 -7 -8 -8 -8 -8 -8 -8 -8
4 3 3 3 3 2 2 2 2 1 1 1 1 0 0 -0 -1 -1 -1 -2 -2 -2 -2 -3 -3 -4 -4 -5 -5 -6 -6 -7 -7 -7 -8 -8 -8 -8 -8 -8 -8 -8 -9 -9
3 3 3 3 2 2 1 1 1 1 1 0 0 -0 -1 -1 -1 -2 -2 -2 -3 -3 -3 -3 -4 -4 -5 -5 -6 -6 -7 -7 -8 -8 -8 -8 -8 -8 -8 -8 -9 -9 -9 -9
2 2 2 2 2 1 1 1 1 0 0 -0 -1 -1 -1 -2 -2 -2 -3 -3 -3 -4 -3 -4 -5 -5 -5 -6 -6 -7 -7 -8 -8 -8 -8 -8 -8 -9 -9 -9 -9 -9 -9 -10
1 1 1 1 1 1 0 0 -0 -0 -1 -1 -1 -2 -2 -2 -3 -3 -3 -4 -4 -4 -4 -5 -5 -6 -6 -6 -7 -7 -8 -8 -8 -8 -9 -9 -9 -9 -9 -9 -10 -10 -10 -10
1 1 1 0 0 0 -0 -1 -1 -1 -1 -2 -2 -2 -3 -3 -3 -4 -4 -4 -4 -5 -5 -6 -6 -6 -7 -7 -8 -8 -8 -8 -9 -9 -9 -9 -9 -9 -10 -10 -10 -10 -10 -11
0 0 -0 -0 -1 -1 -1 -1 -1 -2 -2 -2 -3 -3 -3 -4 -4 -4 -5 -5 -5 -6 -6 -6 -7 -7 -8 -8 -8 -8 -8 -9 -9 -9 -9 -10 -10 -10 -10 -10 -11 -11 -11 -11
-0 -1 -1 -1 -1 -1 -1 -1 -2 -2 -3 -3 -3 -4 -4 -4 -5 -5 -6 -5 -6 -6 -7 -7 -8 -8 -8 -8 -8 -9 -9 -9 -10 -10 -10 -10 -10 -10 -11 -11 -11 -11 -11 -11
-1 -1 -1 -1 -2 -2 -2 -2 -3 -3 -3 -4 -4 -4 -5 -5 -5 -6 -6 -6 -7 -7 -8 -8 -8 -9 -9 -9 -9 -10 -10 -10 -10 -10 -11 -11 -11 -11 -11 -11 -11 -11 -12 -12
-1 -2 -2 -2 -2 -3 -3 -3 -4 -4 -4 -5 -5 -5 -6 -6 -6 -7 -7 -7 -8 -8 -8 -9 -9 -9 -9 -10 -10 -10 -10 -11 -11 -11 -11 -11 -11 -11 -11 -12 -12 -12 -12 -12
-2 -2 -3 -3 -3 -4 -4 -4 -5 -5 -5 -6 -6 -6 -6 -7 -7 -8 -8 -8 -8 -9 -9 -9 -10 -10 -10 -10 -11 -11 -11 -11 -11 -11 -11 -12 -12 -12 -12 -12 -12 -12 -12 -12
-3 -3 -3 -4 -4 -5 -5 -5 -6 -6 -6 -7 -7 -7 -8 -8 -8 -9 -9 -9 -9 -10 -10 -10 -10 -11 -11 -11 -11 -11 -11 -11 -11 -12 -12 -12 -12 -12 -12 -12 -12 -12 -12 -12
Wind_Speed
7 1 2 5 7 10 12 11 9 9 10 5 5 8 9 9 8 8 7 6 5 3 2 1 1 1 1 2 4 4 5 7 8 8 9 9 10 10 10 10 11 11 12 13
6 4 4 7 10 12 12 14 15 14 14 3 3 5 6 8 8 8 7 6 4 3 1 1 1 2 2 4 5 5 6 8 9 9 10 10 10 10 10 10 11 11 12 13
3 1 2 8 11 13 10 9 9 10 6 3 4 4 4 5 7 7 6 5 3 2 1 1 2 2 3 4 5 6 8 9 10 10 10 10 10 10 11 11 11 12 12 13
2 1 7 7 1 1 4 6 5 4 3 4 5 4 3 4 6 6 5 4 2 1 1 1 2 3 4 5 6 7 9 10 10 10 10 10 10 11 12 11 11 11 12 13
3 5 9 6 4 3 3 5 4 5 4 6 7 4 1 4 5 5 4 3 2 1 1 2 3 4 4 6 7 8 9 10 9 9 10 11 12 12 12 11 11 11 12 13
4 5 7 4 3 3 3 5 1 3 6 8 7 3 3 5 6 6 5 3 1 1 2 3 4 4 6 8 8 9 9 9 9 10 11 12 13 13 11 11 12 12 12 12
6 7 8 3 5 4 4 5 3 4 5 7 6 4 4 6 5 4 3 1 0 2 3 4 5 5 7 8 9 9 9 10 10 10 11 12 12 11 11 11 12 12 13 12
6 7 9 7 7 6 4 3 4 4 4 5 6 6 5 4 3 2 1 1 2 3 4 5 5 6 8 9 9 9 10 10 11 11 11 11 12 11 11 11 12 12 13 13
8 8 2 7 5 4 4 4 4 3 4 6 5 4 3 3 2 1 1 2 2 3 5 6 6 7 9 10 10 10 10 11 11 12 11 10 11 12 11 10 10 11 11 13
3 4 5 6 4 4 4 4 4 5 5 5 4 4 3 2 1 1 2 3 3 4 6 7 7 8 9 10 10 10 11 11 11 11 11 10 10 9 10 10 11 11 12 14
5 3 3 6 6 5 5 5 5 4 4 4 4 3 2 1 2 2 3 3 4 5 7 9 9 9 10 10 10 11 11 11 10 10 11 11 10 10 11 10 14 16 13 13
6 4 4 4 5 6 6 6 5 5 4 3 3 2 1 1 2 3 4 4 5 7 8 9 9 10 10 10 9 10 10 10 9 10 10 10 11 13 17 19 26 27 26 24
3 4 4 6 6 5 5 5 5 4 4 2 2 1 1 2 2 3 5 6 7 8 9 10 10 11 11 10 10 10 11 11 10 10 11 11 11 12 15 17 22 25 26 27
5 4 3 4 4 5 5 5 5 3 2 2 1 0 1 3 4 5 6 7 8 9 10 10 11 11 11 10 10 11 11 13 13 10 10 11 11 12 13 15 16 13 17 24
3 3 4 6 6 6 6 5 4 2 1 0 0 1 2 4 6 7 8 8 9 9 10 10 12 12 11 10 10 11 11 10 10 10 10 11 12 12 13 14 15 15 13 15
5 5 5 6 6 5 4 3 2 1 0 1 2 3 4 5 7 8 9 8 9 10 11 11 12 13 11 10 11 10 10 18 18 13 11 12 12 13 13 13 14 14 14 13
6 5 5 5 5 4 3 2 1 0 1 3 4 5 5 7 8 9 9 8 9 10 11 12 13 12 11 10 10 9 10 13 21 16 12 12 13 13 13 13 13 13 13 16
4 4 4 4 4 3 2 1 0 2 3 4 5 6 7 8 9 10 10 10 10 12 12 12 12 12 11 10 10 9 10 10 11 12 13 12 13 13 13 13 13 14 13 15
6 6 6 5 4 2 0 1 2 3 4 5 6 7 8 9 9 10 10 10 12 14 13 11 17 14 11 12 15 9 10 12 13 13 13 17 17 12 12 12 13 13 13 14
5 5 4 3 2 1 1 3 4 5 5 5 6 8 9 10 10 10 11 11 11 11 12 14 13 10 10 11 17 10 11 13 14 14 13 13 13 13 12 13 13 13 13 13
4 3 2 1 1 2 3 4 4 5 6 6 8 9 11 11 11 10 11 13 12 11 12 17 12 9 10 13 18 11 11 13 14 13 14 13 13 13 13 13 13 13 13 13
2 1 0 1 2 3 4 4 5 7 8 8 9 10 10 11 11 11 11 11 12 16 12 9 8 15 19 22 11 11 12 13 13 13 12 13 13 13 13 13 13 13 13 12
0 0 1 2 3 4 6 6 7 7 9 9 10 10 11 11 10 11 13 10 8 17 14 9 17 25 28 17 11 12 12 13 13 13 13 12 12 12 13 14 13 13 13 13
1 2 3 3 4 5 7 8 8 7 9 9 10 11 11 10 10 9 9 15 19 21 13 17 26 27 26 12 10 11 11 12 12 12 13 13 12 12 12 13 13 13 13 14
3 3 4 5 5 6 7 8 8 8 9 8 9 9 8 7 9 10 9 11 18 21 13 17 25 26 16 10 11 11 11 12 14 14 12 12 12 12 12 12 13 13 13 14
3 4 5 5 6 6 6 6 7 7 8 9 9 7 7 7 9 10 10 11 13 19 15 11 12 16 11 11 11 12 11 13 15 13 13 13 13 13 13 13 14 14 13 13
4 4 4 5 5 5 5 6 7 8 8 9 11 9 9 9 10 11 12 11 11 12 11 11 10 10 11 11 12 12 12 12 12 12 12 12 12 12 13 14 14 13 13 14
Wind_Direction
279 282 197 233 231 214 217 229 241 255 268 272 175 178 173 162 153 148 151 151 152 155 172 175 215 263 294 301 299 297 295 292 288 287 287 286 285 284 285 285 287 287 287 286
276 251 249 260 251 242 236 238 246 262 271 295 97 115 140 150 155 157 156 154 154 163 194 229 260 284 294 290 291 296 295 291 289 287 285 282 282 284 285 286 286 287 287 288
258 170 350 261 242 235 230 228 229 247 251 117 112 128 146 154 157 153 148 144 156 180 211 245 277 290 288 287 295 296 289 286 286 286 286 286 289 291 290 289 288 288 288 288
246 243 245 244 142 230 245 253 229 207 177 141 129 103 84 108 132 136 132 134 145 159 244 286 298 295 289 294 294 290 286 286 287 289 293 296 296 294 292 290 289 289 290 289
187 238 268 252 201 178 199 267 231 212 173 118 94 71 59 101 97 112 115 115 125 135 287 287 285 285 294 295 291 288 287 288 292 299 301 300 297 293 292 292 291 289 289 289
184 216 243 242 117 71 86 266 230 156 145 131 121 169 221 126 96 87 86 85 75 351 302 291 289 299 298 291 290 289 290 294 298 298 296 295 293 292 292 292 291 291 291 290
209 226 255 192 145 135 179 234 113 116 135 144 163 172 122 100 95 96 92 85 324 288 285 285 296 301 291 289 288 291 297 298 296 293 292 291 291 291 292 293 293 293 293 291
189 215 244 156 152 188 198 125 116 116 124 130 118 105 105 105 109 117 152 268 286 291 288 293 298 298 293 290 291 296 298 297 295 293 295 297 294 294 293 295 296 296 295 293
197 209 168 155 161 135 119 131 126 123 116 122 130 143 140 145 163 199 247 277 292 291 292 293 295 297 295 293 296 297 297 295 295 296 294 293 294 296 297 295 295 296 296 296
246 218 170 171 156 136 133 132 116 117 122 130 142 143 150 171 206 254 275 285 293 296 294 294 296 294 290 293 297 297 296 296 296 298 297 295 294 294 295 295 295 295 296 297
237 222 170 188 182 163 137 125 120 115 117 126 132 148 172 211 252 270 287 289 292 289 287 289 292 292 292 294 296 296 294 295 297 296 296 298 294 291 293 286 289 296 294 293
214 192 180 174 154 149 148 151 145 136 129 126 141 168 200 250 270 281 285 288 287 282 283 287 291 292 292 292 293 295 296 296 296 296 296 296 297 298 293 293 297 298 297 297
127 81 88 106 107 113 135 140 136 140 147 150 156 175 247 274 284 286 286 285 282 282 283 286 289 290 293 295 295 292 291 294 296 294 296 296 297 299 301 301 298 299 299 300
109 107 122 128 125 117 115 114 114 117 123 136 145 300 289 287 286 283 282 281 283 284 285 287 290 292 295 298 296 293 293 296 298 293 293 294 294 294 296 299 302 300 299 301
136 124 129 120 119 116 115 119 124 135 144 187 293 282 280 280 279 280 282 285 286 286 288 291 292 293 296 296 295 295 295 294 292 290 290 291 292 293 294 294 296 298 300 302
128 116 125 133 136 132 130 134 149 182 249 299 297 289 285 282 281 283 283 284 288 289 290 291 290 291 293 293 294 294 293 295 300 297 295 294 293 294 294 295 296 297 299 302
147 157 156 149 140 132 128 120 128 271 297 290 286 290 290 288 286 285 286 287 285 285 287 288 288 290 291 292 293 294 292 296 299 298 293 292 292 292 293 294 295 297 297 300
131 119 116 118 119 115 103 69 346 290 279 278 283 283 282 282 285 287 289 291 292 289 286 284 286 292 293 293 294 292 292 293 294 293 293 292 293 292 293 294 295 295 297 301
91 89 85 84 89 99 94 301 289 280 276 275 275 277 278 280 282 284 289 292 292 292 290 284 295 299 293 294 300 292 292 294 295 294 293 296 298 294 293 294 295 295 298 301
88 86 84 77 71 84 263 270 274 276 277 281 284 284 283 282 283 287 289 285 281 279 284 291 296 293 291 293 300 293 293 294 295 296 296 295 294 295 295 295 296 296 298 299
98 97 101 116 271 270 269 278 284 285 288 286 281 279 280 283 285 286 288 290 287 282 289 298 300 295 297 299 302 297 295 295 296 296 296 296 295 295 295 296 297 299 300 300
124 129 204 280 290 292 293 293 288 285 285 283 280 279 283 286 286 284 276 279 288 296 301 294 294 298 305 306 301 298 297 296 297 297 296 295 295 295 296 298 298 299 299 299
88 311 300 296 293 293 296 290 282 279 278 278 280 282 282 283 285 289 293 289 290 300 305 295 302 306 309 310 302 300 298 298 297 297 297 297 296 296 297 297 298 298 299 299
312 305 294 292 295 290 285 282 278 276 275 277 276 274 277 285 286 277 278 296 306 304 302 301 306 308 311 309 300 298 298 297 297 297 297 296 295 295 296 297 298 299 299 298
277 279 280 281 280 275 275 283 288 286 284 281 279 278 277 276 285 294 295 297 302 305 301 303 306 308 309 299 298 297 298 295 296 299 299 300 299 298 297 297 297 298 299 298
274 271 269 267 268 274 279 283 285 286 290 293 292 290 291 291 291 295 296 296 295 301 304 300 300 302 300 296 296 296 296 299 300 300 297 296 296 297 298 298 297 297 297 297
279 276 277 281 280 276 278 283 287 290 292 295 298 299 299 300 299 299 299 300 300 300 300 299 299 299 298 298 298 297 297 297 297 297 297 296 296 297 298 297 297 297 297 297
Height
1491 1490 1492 1494 1496 1497 1501 1500 1503 1494 1490 1486 1487 1489 1491 1494 1497 1500 1503 1505 1507 1509 1509 1510 1509 1508 1507 1505 1503 1500 1497 1494 1491 1487 1483 1479 1474 1470 1466 1461 1457 1452 1447 1443
1493 1490 1491 1494 1492 1492 1492 1491 1491 1489 1487 1483 1484 1487 1489 1492 1495 1497 1500 1503 1505 1506 1506 1506 1505 1504 1502 1500 1498 1495 1492 1488 1485 1481 1476 1472 1468 1463 1459 1454 1449 1445 1440 1435
1499 1492 1494 1499 1486 1484 1485 1481 1483 1487 1485 1484 1485 1487 1489 1491 1493 1495 1498 1500 1501 1502 1503 1502 1501 1500 1498 1496 1493 1490 1486 1483 1479 1475 1470 1466 1461 1456 1451 1446 1441 1436 1431 1427
1499 1497 1509 1486 1476 1476 1476 1476 1476 1478 1480 1482 1484 1487 1488 1490 1491 1493 1495 1497 1498 1499 1499 1498 1497 1495 1493 1491 1488 1484 1481 1477 1473 1469 1464 1459 1454 1449 1444 1439 1434 1428 1423 1419
1502 1502 1493 1479 1476 1476 1478 1478 1474 1476 1478 1481 1483 1486 1488 1489 1490 1492 1493 1495 1495 1495 1495 1494 1493 1491 1488 1485 1482 1479 1475 1471 1467 1463 1457 1452 1447 1441 1436 1431 1425 1420 1415 1410
1499 1503 1501 1478 1477 1475 1478 1482 1473 1474 1477 1480 1483 1490 1488 1487 1488 1490 1491 1492 1492 1492 1491 1490 1488 1486 1483 1480 1476 1473 1469 1465 1461 1456 1450 1445 1439 1434 1429 1423 1417 1412 1406 1402
1497 1498 1487 1475 1475 1477 1486 1480 1475 1474 1476 1479 1482 1485 1486 1486 1487 1488 1488 1489 1489 1488 1487 1485 1483 1481 1477 1474 1471 1467 1463 1458 1454 1449 1443 1438 1432 1427 1421 1415 1410 1404 1398 1393
1491 1494 1487 1473 1474 1477 1475 1474 1474 1475 1476 1478 1481 1482 1483 1484 1485 1485 1486 1486 1485 1484 1482 1481 1479 1476 1472 1468 1465 1460 1456 1451 1446 1441 1436 1430 1424 1419 1414 1408 1402 1396 1390 1384
1475 1475 1468 1468 1469 1470 1471 1472 1473 1474 1476 1477 1479 1480 1481 1482 1483 1483 1483 1482 1481 1480 1477 1476 1473 1470 1466 1462 1458 1453 1448 1443 1438 1433 1428 1423 1417 1411 1406 1401 1395 1388 1383 1376
1468 1466 1465 1467 1468 1469 1470 1471 1472 1473 1474 1476 1477 1478 1479 1480 1480 1480 1479 1478 1477 1475 1472 1470 1467 1464 1460 1456 1451 1446 1441 1436 1430 1425 1419 1414 1410 1404 1399 1393 1387 1381 1375 1369
1465 1463 1463 1464 1465 1467 1468 1469 1470 1471 1473 1474 1475 1476 1476 1477 1477 1476 1475 1474 1472 1470 1467 1464 1461 1457 1453 1449 1444 1439 1434 1428 1423 1417 1412 1406 1401 1397 1391 1386 1382 1376 1369 1364
1461 1458 1460 1461 1462 1464 1466 1467 1468 1469 1470 1472 1473 1473 1473 1473 1473 1472 1471 1469 1467 1464 1461 1457 1454 1450 1446 1443 1438 1432 1426 1420 1415 1410 1404 1399 1393 1387 1382 1379 1373 1369 1363 1358
1455 1455 1457 1458 1460 1462 1463 1465 1466 1467 1468 1469 1470 1470 1470 1470 1469 1468 1466 1464 1461 1458 1455 1451 1447 1443 1440 1436 1431 1425 1419 1413 1408 1402 1397 1391 1386 1379 1372 1366 1363 1359 1354 1349
1452 1454 1456 1457 1459 1460 1462 1463 1464 1465 1466 1467 1467 1467 1467 1466 1464 1463 1461 1458 1455 1452 1448 1445 1441 1436 1433 1428 1423 1417 1412 1406 1401 1395 1390 1384 1379 1373 1367 1360 1353 1347 1344 1340
1451 1452 1454 1455 1457 1458 1460 1461 1462 1463 1464 1464 1464 1464 1463 1461 1459 1457 1455 1452 1449 1446 1442 1438 1433 1429 1425 1420 1415 1409 1404 1398 1393 1387 1382 1377 1371 1366 1360 1354 1347 1341 1335 1330
1449 1451 1452 1454 1455 1457 1458 1459 1460 1461 1461 1461 1461 1460 1459 1457 1454 1452 1449 1447 1443 1439 1435 1431 1426 1421 1417 1412 1407 1401 1396 1391 1386 1380 1374 1369 1364 1358 1353 1347 1341 1335 1329 1324
1447 1449 1451 1453 1454 1456 1457 1458 1458 1458 1458 1458 1457 1455 1454 1451 1448 1446 1443 1440 1437 1432 1428 1423 1418 1414 1409 1404 1399 1393 1387 1382 1377 1372 1367 1361 1356 1351 1345 1340 1334 1328 1323 1318
1446 1448 1449 1451 1453 1454 1455 1456 1456 1456 1455 1454 1452 1451 1448 1446 1442 1439 1436 1432 1428 1424 1420 1416 1411 1406 1401 1397 1391 1385 1380 1374 1369 1364 1359 1354 1348 1343 1338 1332 1327 1321 1315 1310
1445 1446 1448 1450 1451 1452 1452 1453 1453 1452 1451 1449 1448 1445 1443 1440 1437 1433 1429 1425 1420 1415 1411 1407 1403 1398 1393 1388 1384 1378 1372 1367 1361 1356 1351 1346 1341 1335 1330 1325 1319 1314 1309 1303
1444 1446 1447 1448 1449 1450 1450 1450 1449 1448 1447 1445 1442 1439 1436 1433 1430 1426 1422 1417 1413 1409 1404 1399 1395 1390 1385 1380 1375 1370 1365 1359 1354 1348 1343 1338 1332 1327 1322 1317 1312 1307 1301 1296
1444 1445 1446 1447 1447 1447 1447 1446 1445 1443 1442 1440 1437 1433 1430 1426 1423 1419 1414 1408 1404 1401 1397 1392 1387 1382 1377 1372 1367 1362 1357 1351 1346 1341 1335 1330 1325 1319 1314 1309 1304 1299 1294 1289
1443 1444 1444 1444 1444 1444 1443 1442 1440 1438 1436 1433 1430 1427 1423 1419 1415 1411 1407 1403 1397 1394 1389 1384 1379 1374 1370 1365 1359 1354 1349 1343 1338 1333 1328 1323 1317 1312 1307 1302 1297 1292 1287 1281
1442 1442 1442 1442 1441 1440 1439 1437 1435 1433 1430 1427 1424 1420 1416 1412 1408 1404 1398 1394 1390 1386 1381 1376 1371 1367 1362 1357 1351 1346 1341 1335 1330 1325 1320 1315 1310 1305 1300 1294 1289 1284 1279 1274
1440 1440 1439 1438 1437 1435 1433 1431 1429 1426 1423 1420 1417 1414 1410 1405 1400 1397 1392 1387 1383 1378 1373 1368 1363 1359 1354 1348 1343 1338 1333 1328 1322 1317 1312 1307 1302 1297 1292 1287 1282 1276 1271 1266
1437 1436 1435 1434 1432 1430 1428 1425 1422 1420 1416 1413 1410 1407 1403 1399 1394 1389 1384 1379 1374 1370 1364 1359 1355 1350 1345 1340 1335 1330 1325 1320 1315 1310 1305 1299 1294 1289 1284 1279 1274 1269 1264 1258
1433 1432 1431 1429 1427 1425 1422 1419 1416 1413 1410 1406 1402 1399 1395 1391 1386 1381 1376 1371 1366 1361 1356 1351 1346 1342 1337 1332 1327 1322 1317 1312 1307 1302 1297 1292 1287 1282 1276 1271 1266 1261 1256 1250
1429 1428 1426 1424 1422 1420 1417 1414 1411 1407 1404 1400 1395 1390 1387 1382 1378 1373 1368 1363 1358 1353 1348 1343 1339 1334 1329 1324 1319 1314 1309 1304 1299 1294 1289 1284 1279 1274 1268 1263 1258 1253 1248 1243